Location: Allonne
(49.4086°N, 2.1143°E)
Time: 09:15:36
(UTC+00:00)

Cosmos 1633 - Pass Details

Date: 03 February 2023
Orbit: 424 x 432 km, 82.5° (Epoch: 24 March)

Event Time Altitude Azimuth Distance (km) Brightness Sun altitude
Rises 19:04:58 0° 208° (SSW) 2,380 6.4 -22.0°
Reaches altitude 10° 19:07:07 10° 217° (SW) 1,517 5.5 -22.4°
Maximum altitude 19:10:10 35° 285° (WNW) 713 3.9 -22.9°
Enters shadow 19:12:22 16° 346° (NNW) 1,204 4.7 -23.2°
